{"data":{"norad_id":46383,"intl_designator":"2020-062BL","name":"STARLINK-1770","alt_names":[],"object_type":"PAYLOAD","status":"ACTIVE","operator":null,"country":"US","launch_date":"2020-09-03","launch_site_code":"AFETR","launch_vehicle":null,"mission":null,"orbit_class":"UNKNOWN","rcs_meters":null,"size_class":null,"mass_kg":null,"dimensions":null,"purposes":["comms"],"wikipedia_slug":null,"has_3d_model":false,"image_url":null,"decayed_at":null,"tle_current":{"epoch":"2026-05-25T03:28:22.287360Z","epoch_age_seconds":59722,"freshness":"FRESH","line1":"1 46383U 20062BL  26145.14470240  .00085887  00000+0  57300-3 0  9997","line2":"2 46383  53.0393 297.8738 0003034 189.9062 170.1897 15.74652668317170","mean_motion":15.74652668,"eccentricity":0.0003034,"inclination_deg":53.0393,"raan_deg":297.8738,"arg_perigee_deg":189.9062,"mean_anomaly_deg":170.1897,"bstar":0.000573,"rev_number":31717,"period_min":91.448738459191,"perigee_km":343.57974884063,"apogee_km":347.65972442841,"semimajor_km":6723.7567366345,"source":"CELESTRAK","updated_at":"2026-05-25T13:38:16.474262Z"}}}